Andrews, TX

5:59 PM CST on November 18, 2017 (GMT -0600)
Andrews

Weather History for KE11 - October, 2012

Change the Weather History Date:

Monday, October 22, 2012

  Actual Average (KMAF) Record (KMAF)
Temperature  
Mean Temperature 70 °F -  
Max Temperature 82 °F 73 °F 91 °F (2001)
Min Temperature 57 °F 49 °F 33 °F (1990)
Cooling Degree Days 4    
Growing Degree Days 20 (Base 50)    
Moisture  
Dew Point 55 °F    
Average Humidity 59    
Maximum Humidity 91    
Minimum Humidity 32    
Precipitation  
Precipitation 0.22 in - - ()
Sea Level Pressure  
Sea Level Pressure 29.95 in    
Wind  
Wind Speed 8 mph ()    
Max Wind Speed 24 mph    
Max Gust Speed 45 mph    
Visibility 9.9 miles    
Events Rain , Thunderstorm    
Averages and records for this station are not official NWS values.
T = Trace of Precipitation, MM = Missing Value Source: Averaged Metar Reports

Daily Weather History Graph

Daily Weather History Graph

Search for Another Location

Airport or City:

Trip Planner

Search our weather history database for the weather conditions in past years. The results will help you decide how hot, cold, wet, or windy it might be!

Date:

Astronomy

Oct. 22, 2012 Rise Set
Actual Time 7:59 AM CDT 7:08 PM CDT
Civil Twilight 7:34 AM CDT 7:33 PM CDT
Nautical Twilight 7:05 AM CDT 8:02 PM CDT
Astronomical Twilight 6:37 AM CDT 8:31 PM CDT
Moon 2:57 PM CDT (10/22) 1:12 AM CDT (10/22)
Length of Visible Light 11h 59m
Length of Day
11h 09m
First Quarter, 56% of the Moon is Illuminated
Oct 22
First Quarter
Oct 29
Full
Nov 6
Last Quarter
Nov 13
New
Nov 20
First Quarter

Hourly Weather History & Observations

Time (CDT) Temp. Dew Point Humidity Pressure Visibility Wind Dir Wind Speed Gust Speed Precip Events Conditions
12:15 AM 71.8 °F 57.2 °F 60% 29.92 in 10.0 mi SSW 10.4 mph - N/A   Clear
12:35 AM 71.2 °F 58.3 °F 64% 29.93 in 10.0 mi SSW 9.2 mph - N/A   Clear
12:55 AM 70.7 °F 59.4 °F 67% 29.92 in 10.0 mi SSW 9.2 mph - N/A   Clear
1:35 AM 69.8 °F 59.7 °F 70% 29.94 in 10.0 mi West 8.1 mph - N/A   Clear
1:55 AM 70.3 °F 59.9 °F 69% 29.96 in 10.0 mi West 12.7 mph 18.4 mph N/A   Scattered Clouds
2:35 AM 57.9 °F 55.2 °F 91% 30.03 in 7.0 mi West 20.7 mph 44.9 mph 0.17 in Rain , Thunderstorm Light Thunderstorms and Rain
2:55 AM 59.4 °F 55.8 °F 88% 29.92 in 10.0 mi NE 24.2 mph 33.4 mph 0.19 in Rain , Thunderstorm Light Thunderstorms and Rain
3:15 AM 64.4 °F 51.8 °F 64% 29.92 in 10.0 mi ENE 9.2 mph 16.1 mph N/A Thunderstorm Mostly Cloudy
3:55 AM 64.2 °F 54.0 °F 69% 29.95 in 10.0 mi Calm Calm - N/A Thunderstorm Mostly Cloudy
4:35 AM 63.7 °F 56.8 °F 78% 29.94 in 10.0 mi WNW 3.5 mph - N/A   Overcast
4:55 AM 64.9 °F 55.6 °F 72% 29.95 in 10.0 mi WNW 3.5 mph - N/A Thunderstorm Thunderstorm
5:15 AM 62.6 °F 58.3 °F 86% 29.89 in 10.0 mi North 10.4 mph - 0.03 in Rain , Thunderstorm Light Thunderstorms and Rain
5:35 AM 67.6 °F 48.7 °F 51% 29.92 in 10.0 mi Calm Calm - 0.03 in Thunderstorm Thunderstorm
5:55 AM 61.9 °F 56.3 °F 82% 29.93 in 10.0 mi South 5.8 mph - 0.03 in   Scattered Clouds
6:15 AM 60.6 °F 56.1 °F 85% 29.93 in 10.0 mi South 3.5 mph - N/A Thunderstorm Scattered Clouds
7:15 AM 60.8 °F 56.7 °F 86% 29.96 in 10.0 mi South 6.9 mph - N/A   Mostly Cloudy
7:35 AM 60.3 °F 55.4 °F 84% 29.96 in 10.0 mi SSE 6.9 mph - N/A   Scattered Clouds
7:55 AM 59.0 °F 55.4 °F 88% 29.95 in 10.0 mi Calm Calm - N/A   Clear
9:35 AM 63.5 °F 56.8 °F 79% 29.98 in 10.0 mi South 5.8 mph - N/A   Clear
9:55 AM 65.7 °F 57.2 °F 74% 29.99 in 10.0 mi South 5.8 mph - N/A   Clear
10:15 AM 68.2 °F 59.0 °F 72% 29.99 in 10.0 mi South 8.1 mph - N/A   Clear
10:35 AM 70.0 °F 59.0 °F 68% 30.00 in 10.0 mi SSW 8.1 mph - N/A   Clear
10:55 AM 71.1 °F 59.9 °F 68% 30.00 in 10.0 mi SSW 6.9 mph - N/A   Clear
11:35 AM 73.6 °F 60.6 °F 64% 30.01 in 10.0 mi South 10.4 mph - N/A   Clear
12:15 PM 75.0 °F 56.5 °F 52% 30.00 in 10.0 mi SSW 5.8 mph - N/A   Clear
12:35 PM 76.3 °F 57.6 °F 52% 29.99 in 10.0 mi SW 8.1 mph - N/A   Clear
12:55 PM 77.0 °F 56.5 °F 49% 29.99 in 10.0 mi SW 10.4 mph - N/A   Clear
1:15 PM 77.9 °F 54.9 °F 45% 29.98 in 10.0 mi SW 9.2 mph - N/A   Clear
1:35 PM 78.4 °F 53.8 °F 42% 29.97 in 10.0 mi WSW 9.2 mph - N/A   Clear
1:55 PM 79.2 °F 51.6 °F 38% 29.96 in 10.0 mi WSW 8.1 mph - N/A   Clear
2:15 PM 79.9 °F 51.1 °F 37% 29.95 in 10.0 mi SW 10.4 mph - N/A   Clear
2:35 PM 79.9 °F 50.7 °F 36% 29.94 in 10.0 mi SW 5.8 mph - N/A   Clear
3:15 PM 81.1 °F 48.6 °F 32% 29.92 in 10.0 mi SSW 4.6 mph 16.1 mph N/A   Clear
3:35 PM 81.5 °F 49.8 °F 33% 29.92 in 10.0 mi SW 6.9 mph - N/A   Clear
3:55 PM 81.7 °F 50.4 °F 34% 29.92 in 10.0 mi SW 6.9 mph 10.4 mph N/A   Clear
4:15 PM 81.9 °F 49.6 °F 32% 29.91 in 10.0 mi SSW 9.2 mph - N/A   Clear
4:35 PM 82.0 °F 49.1 °F 32% 29.91 in 10.0 mi SW 11.5 mph 19.6 mph N/A   Clear
4:55 PM 81.9 °F 49.6 °F 32% 29.92 in 10.0 mi SSW 10.4 mph - N/A   Clear
5:15 PM 81.7 °F 50.2 °F 33% 29.92 in 10.0 mi SSW 8.1 mph - N/A   Clear
5:35 PM 81.5 °F 50.2 °F 34% 29.92 in 10.0 mi SSW 10.4 mph - N/A   Clear
5:55 PM 80.6 °F 50.5 °F 35% 29.91 in 10.0 mi South 9.2 mph - N/A   Clear
6:15 PM 80.1 °F 50.0 °F 35% 29.91 in 10.0 mi South 6.9 mph - N/A   Clear
6:35 PM 79.0 °F 50.5 °F 37% 29.92 in 10.0 mi South 8.1 mph - N/A   Clear
6:55 PM 76.8 °F 51.4 °F 41% 29.92 in 10.0 mi South 6.9 mph - N/A   Clear
7:35 PM 72.7 °F 52.9 °F 50% 29.93 in 10.0 mi SSW 5.8 mph - N/A   Clear
7:55 PM 71.8 °F 52.7 °F 51% 29.93 in 10.0 mi South 6.9 mph - N/A   Clear
8:35 PM 70.9 °F 51.6 °F 50% 29.95 in 10.0 mi South 6.9 mph - N/A   Clear
8:55 PM 70.7 °F 52.5 °F 52% 29.95 in 10.0 mi SSW 6.9 mph - N/A   Clear
9:15 PM 67.1 °F 53.8 °F 62% 29.95 in 10.0 mi South 6.9 mph - N/A   Clear
9:55 PM 65.3 °F 54.0 °F 67% 29.96 in 10.0 mi North - - N/A   Clear
10:35 PM 66.9 °F 59.0 °F 76% 29.96 in 10.0 mi SSW 8.1 mph - N/A   Clear
10:55 PM 66.9 °F 59.7 °F 78% 29.96 in 10.0 mi SSW 8.1 mph - N/A   Clear
11:15 PM 66.9 °F 60.1 °F 79% 29.96 in 10.0 mi SW 8.1 mph - N/A   Clear
11:35 PM 65.7 °F 59.9 °F 82% 29.96 in 10.0 mi SW 8.1 mph - N/A   Clear
11:55 PM 65.3 °F 60.3 °F 84% 29.96 in 10.0 mi SSW 6.9 mph - N/A   Clear